ONEWEB-0341 (49207 NORAD) Tracking and Keplerian Element Data

This shows tracking and keplerian element data for the satellite.

Feedback or suggestion? Click here.




ElementValue
Catalog49207
NameONEWEB-0341
Epoch Orbit355
Epoch Day300.58334491
Epoch Year2021
RAAN314.094
Inclination87.5909
Eccentricity0.0021749
Argument of Perigee149.0763
Mean Anonmoly93.4837
Mean Motion14.53558545
Decay Rate-0.01415168
L11 49207U 21083X 21300.58334491 -.01415168 00000-0 -36662+0 0 9999
L22 49207 87.5909 314.0940 0021749 149.0763 93.4837 14.53558545 3558

Live tracking and technical data element details for ONEWEB-0341 (NORAD 49207). ONEWEB-0341 can be tracked NOW for your location showing map with azimuth and elevation plus other details from your city location.

Track the satellite on the map from your city or location and see movement details for azimuth, elevation, latitude, longitude, range, height, and movement on the map or in text.







IsCatalogInMostPopularTable: catalog: 49207, numindb: 12
Update: records affected: 1



GetName: 49207 ONEWEB-0341

Hit Count: updated at: Thu, 28 Oct 2021 10:45:20 GMT